Location: Riedlingen
(48.1569°N, 9.4757°E)
Time: 03:22:40
(UTC+02:00)

ISS - Pass Details

Date: 13 May 2021
Orbit: 417 x 422 km, 51.6° (Epoch: 15 June)

Event Time Altitude Azimuth Distance (km) Brightness Sun altitude
Exits shadow 03:36:58 - 291° (WNW) 2,127 -0.3 -16.6°
Reaches altitude 10° 03:38:30 10° 294° (WNW) 1,509 -1.1 -16.5°
Maximum altitude 03:41:51 62° 16° (NNE) 481 -3.3 -16.1°
Drops below altitude 10° 03:45:13 10° 98° (E) 1,508 -0.6 -15.8°
Sets 03:47:20 0° 102° (ESE) 2,371 0.4 -15.6°
